This is the latest recevied weather packets stored in our database for station/object KG7FOQ-13. If no packets are shown the sender has not sent any weather packets the latest 10 day(s).
| Time | Temp. | Humidity | Pressure | Rain* | Wind** | Luminosity | Snow |
|---|---|---|---|---|---|---|---|
| 1777958487 | 13.33° C | 37% | 1004.8 hPa | 0 mm | - | - | - |
| 1777958186 | 13.89° C | 36% | 1004.8 hPa | 0 mm | - | - | - |
| 1777957886 | 13.89° C | 36% | 1004.8 hPa | 0 mm | - | - | - |
| 1777957585 | 13.89° C | 37% | 1004.8 hPa | 0 mm | - | - | - |
| 1777957285 | 13.89° C | 38% | 1005 hPa | 0 mm | - | - | - |
| 1777956984 | 13.89° C | 37% | 1005 hPa | 0 mm | - | - | - |
| 1777956684 | 13.33° C | 37% | 1005 hPa | 0 mm | - | - | - |
| 1777956383 | 14.44° C | 37% | 1005 hPa | 0 mm | - | - | - |
| 1777956083 | 14.44° C | 38% | 1005 hPa | 0 mm | - | - | - |
| 1777955825 | 14.44° C | 38% | 1005 hPa | 0 mm | - | - | - |
| 1777955782 | 14.44° C | 38% | 1005 hPa | 0 mm | - | - | - |
| 1777955482 | 14.44° C | 39% | 1004.8 hPa | 0 mm | - | - | - |
| 1777955213 | 13.33° C | 42% | 1005 hPa | 0 mm | - | - | - |
| 1777955181 | 13.33° C | 42% | 1005 hPa | 0 mm | - | - | - |
| 1777954881 | 14.44° C | 41% | 1005 hPa | 0 mm | - | - | - |
| 1777954580 | 15.56° C | 35% | 1005 hPa | 0 mm | - | - | - |
| 1777954278 | 16.67° C | 31% | 1005 hPa | 0 mm | - | - | - |
| 1777954010 | 16.11° C | 31% | 1005 hPa | 0 mm | - | - | - |
| 1777953977 | 16.11° C | 31% | 1005 hPa | 0 mm | - | - | - |
| 1777953677 | 15.56° C | 32% | 1005 hPa | 0 mm | - | - | - |
| 1777953376 | 14.44° C | 36% | 1004.8 hPa | 0 mm | - | - | - |
| 1777953076 | 14.44° C | 39% | 1004.8 hPa | 0 mm | - | - | - |
| 1777952775 | 15° C | 38% | 1004.7 hPa | 0 mm | - | - | - |
| 1777952475 | 14.44° C | 38% | 1004.7 hPa | 0 mm | - | - | - |
| 1777952175 | 15.56° C | 39% | 1004.6 hPa | 0 mm | - | - | - |
* Rain latest hour (hover to see other rain measurements)
** Current wind speed in m/s (hover to see current wind gust speed)